Location: Amsterdam
(30.7274°N, 84.4357°W)
Time: 19:42:14
(UTC+00:00)

Altair - All Passes

Search period start: 15 February 2026 00:00
Search period end: 25 February 2026 00:00
Orbit: 1502 x 1682 km, 47.2° (Epoch: 14 February)

Date Brightness Start Highest point End Pass type
(mag) Time Alt. Az. Time Alt. Az. Time Alt. Az.
15 Feb - 08:03:14 10° S 08:10:14 25° SE 08:17:15 10° ENE visible
15 Feb - 10:04:52 10° SW 10:14:04 85° NW 10:23:30 10° NE visible
15 Feb - 12:11:30 10° W 12:19:49 36° NNW 12:28:24 10° NE daylight
15 Feb - 14:19:07 10° NW 14:27:10 30° N 14:35:27 10° ENE daylight
15 Feb - 16:24:24 10° NW 16:33:52 56° NNE 16:43:39 10° ESE daylight
15 Feb - 18:29:19 10° WNW 18:38:41 51° SW 18:48:18 10° SSE daylight
16 Feb - 07:38:36 10° S 07:45:06 22° SE 07:51:39 10° E visible
16 Feb - 09:39:40 10° SW 09:48:51 88° SE 09:58:15 10° NE visible
16 Feb - 11:46:03 10° W 11:54:26 37° NNW 12:03:04 10° NE visible
16 Feb - 13:53:46 10° NW 14:01:43 29° N 14:09:55 10° ENE daylight
16 Feb - 15:59:11 10° NW 16:08:32 52° NNE 16:18:11 10° ESE daylight
16 Feb - 18:03:59 10° WNW 18:13:28 56° SW 18:23:13 10° SSE daylight
16 Feb - 20:15:03 10° WSW 20:17:02 11° WSW 20:19:03 10° SW daylight
17 Feb - 07:14:02 10° SSE 07:19:59 19° SE 07:25:57 10° E visible
17 Feb - 09:14:28 10° SW 09:23:38 82° SE 09:32:59 10° NE visible
17 Feb - 11:20:36 10° W 11:29:04 39° NNW 11:37:46 10° NE visible
17 Feb - 13:28:23 10° NW 13:36:17 29° N 13:44:23 10° ENE daylight
17 Feb - 15:33:57 10° NW 15:43:11 49° NNE 15:52:44 10° ESE daylight
17 Feb - 17:38:42 10° WNW 17:48:15 62° SW 17:58:07 10° SSE daylight
17 Feb - 19:48:02 10° W 19:51:53 13° WSW 19:55:47 10° SW daylight
18 Feb - 06:49:37 10° SSE 06:54:53 17° SE 07:00:08 10° E visible
18 Feb - 08:49:19 10° SW 08:58:27 76° SE 09:07:42 10° NE visible
18 Feb - 10:55:10 10° W 11:03:42 41° NNW 11:12:29 10° NE visible
18 Feb - 13:03:01 10° NW 13:10:50 29° N 13:18:53 10° ENE daylight
18 Feb - 15:08:44 10° NW 15:17:50 46° NNE 15:27:14 10° E daylight
18 Feb - 17:13:25 10° NW 17:23:01 67° SW 17:32:57 10° SE daylight
18 Feb - 19:21:45 10° W 19:26:43 15° WSW 19:31:46 10° SSW daylight
19 Feb - 06:25:23 10° SSE 06:29:45 14° ESE 06:34:09 10° E visible
19 Feb - 08:24:11 10° SW 08:33:15 69° SE 08:42:26 10° NE visible
19 Feb - 10:29:44 10° W 10:38:21 43° NNW 10:47:13 10° NE visible
19 Feb - 12:37:36 10° WNW 12:45:23 28° N 12:53:23 10° ENE daylight
19 Feb - 14:43:30 10° NW 14:52:28 43° NNE 15:01:44 10° E daylight
19 Feb - 16:48:09 10° NW 16:57:48 73° SW 17:07:46 10° SE daylight
19 Feb - 18:55:47 10° W 19:01:34 17° SW 19:07:28 10° SSW daylight
20 Feb - 06:01:29 10° SE 06:04:39 12° ESE 06:07:49 10° ESE night (unlit)
20 Feb - 07:59:04 10° SSW 08:08:04 63° SE 08:17:09 10° ENE visible
20 Feb - 10:04:19 10° W 10:13:01 46° NNW 10:21:57 10° NE visible
20 Feb - 12:12:12 10° WNW 12:19:56 28° N 12:27:54 10° NE daylight
20 Feb - 14:18:17 10° NW 14:27:06 41° NNE 14:36:13 10° E daylight
20 Feb - 16:22:54 10° NW 16:32:33 79° SW 16:42:33 10° SE daylight
20 Feb - 18:29:58 10° W 18:36:25 20° SW 18:43:00 10° SSW daylight
21 Feb - 05:39:29 10° ESE 05:39:32 10° ESE 05:39:35 10° ESE night (unlit)
21 Feb - 07:34:00 10° SSW 07:42:54 57° SE 07:51:51 10° ENE visible
21 Feb - 09:38:55 10° WSW 09:47:42 49° NNW 09:56:42 10° NE visible
21 Feb - 11:46:46 10° WNW 11:54:30 29° N 12:02:26 10° NE visible
21 Feb - 13:53:02 10° NW 14:01:43 39° NNE 14:10:41 10° E daylight
21 Feb - 15:57:39 10° NW 16:07:18 85° SW 16:17:18 10° SE daylight
21 Feb - 18:04:16 10° W 18:11:15 22° SW 18:18:24 10° S daylight
22 Feb - 07:08:57 10° SSW 07:17:44 52° SE 07:26:32 10° ENE visible
22 Feb - 09:13:32 10° WSW 09:22:24 52° NNW 09:31:27 10° NE visible
22 Feb - 11:21:19 10° WNW 11:29:04 29° N 11:37:01 10° NE visible
22 Feb - 13:27:47 10° NW 13:36:20 37° NNE 13:45:08 10° E daylight
22 Feb - 15:32:25 10° NW 15:42:03 89° NE 15:52:02 10° SE daylight
22 Feb - 17:38:40 10° WNW 17:46:05 25° SW 17:53:42 10° S daylight
23 Feb - 06:43:56 10° SSW 06:52:35 47° SE 07:01:12 10° ENE visible
23 Feb - 08:48:09 10° WSW 08:57:06 56° NNW 09:06:13 10° NE visible
23 Feb - 10:55:51 10° WNW 11:03:38 29° N 11:11:35 10° NE visible
23 Feb - 13:02:33 10° NW 13:10:57 35° NNE 13:19:36 10° E daylight
23 Feb - 15:07:12 10° NW 15:16:47 83° NE 15:26:44 10° SE daylight
23 Feb - 17:13:07 10° WNW 17:20:55 28° SW 17:28:56 10° S daylight
24 Feb - 06:18:57 10° SSW 06:27:26 42° SE 06:35:52 10° ENE visible
24 Feb - 08:22:48 10° WSW 08:31:49 60° NNW 08:40:58 10° NE visible
24 Feb - 10:30:24 10° WNW 10:38:13 30° N 10:46:12 10° NE visible
24 Feb - 12:37:16 10° NW 12:45:33 34° NNE 12:54:03 10° E daylight
24 Feb - 14:41:59 10° NW 14:51:31 77° NE 15:01:25 10° SE daylight
24 Feb - 16:47:38 10° WNW 16:55:44 31° SW 17:04:06 10° S daylight
